TimeEST,TemperatureF,Dew PointF,Humidity,Sea Level PressureIn,VisibilityMPH,Wind Direction,Wind SpeedMPH,Gust SpeedMPH,PrecipitationIn,Events,Conditions,WindDirDegrees,DateUTC
12:07 AM,55.4,51.8,88,30.10,10.0,Calm,Calm,-,N/A,,Overcast,0,2014-01-02 05:07:00
12:27 AM,55.4,51.8,88,30.10,5.0,Calm,Calm,-,0.00,Rain,Rain,0,2014-01-02 05:27:00
12:53 AM,55.9,52.0,87,30.09,4.0,Calm,Calm,-,0.01,Rain,Light Rain,0,2014-01-02 05:53:00
1:34 AM,55.4,53.6,94,30.08,2.5,North,3.5,-,0.07,Rain,Heavy Rain,360,2014-01-02 06:34:00
1:50 AM,55.4,53.6,94,30.08,3.0,Calm,Calm,-,0.11,Rain,Rain,0,2014-01-02 06:50:00
1:53 AM,55.9,53.1,90,30.07,3.0,Calm,Calm,-,0.11,Rain,Rain,0,2014-01-02 06:53:00
1:59 AM,55.4,53.6,94,30.06,2.5,ENE,3.5,-,0.03,Rain,Heavy Rain,60,2014-01-02 06:59:00
2:11 AM,55.4,53.6,94,30.06,3.0,ENE,3.5,-,0.08,Rain,Rain,70,2014-01-02 07:11:00
2:30 AM,55.4,53.6,94,30.05,5.0,Calm,Calm,-,0.12,Rain,Light Rain,0,2014-01-02 07:30:00
2:51 AM,55.4,53.6,94,30.04,9.0,Calm,Calm,-,0.12,Rain,Light Rain,0,2014-01-02 07:51:00
2:53 AM,55.9,53.1,90,30.04,9.0,Calm,Calm,-,0.12,Rain,Light Rain,0,2014-01-02 07:53:00
3:25 AM,55.4,53.6,94,30.02,7.0,North,3.5,-,0.01,Rain,Light Rain,360,2014-01-02 08:25:00
3:53 AM,55.9,53.1,90,30.02,7.0,Calm,Calm,-,0.04,Rain,Light Rain,0,2014-01-02 08:53:00
4:45 AM,55.4,53.6,94,30.01,8.0,Calm,Calm,-,0.07,Rain,Light Rain,0,2014-01-02 09:45:00
4:53 AM,55.9,53.1,90,30.01,10.0,Calm,Calm,-,0.07,Rain,Light Rain,0,2014-01-02 09:53:00
5:10 AM,55.4,53.6,94,30.00,5.0,Calm,Calm,-,0.04,Rain,Light Rain,0,2014-01-02 10:10:00
5:17 AM,55.4,53.6,94,29.99,8.0,Calm,Calm,-,0.04,Rain,Light Rain,0,2014-01-02 10:17:00
5:53 AM,55.9,53.1,90,29.98,7.0,Calm,Calm,-,0.11,Rain,Rain,0,2014-01-02 10:53:00
6:48 AM,55.4,53.6,94,29.97,10.0,Calm,Calm,-,0.06,Rain,Light Rain,0,2014-01-02 11:48:00
6:53 AM,55.9,53.1,90,29.97,10.0,Calm,Calm,-,0.06,Rain,Light Rain,0,2014-01-02 11:53:00
7:40 AM,55.4,53.6,94,29.97,10.0,Calm,Calm,-,0.02,Rain,Light Rain,0,2014-01-02 12:40:00
7:53 AM,55.9,53.1,90,29.96,10.0,ENE,3.5,-,0.03,Rain,Light Rain,60,2014-01-02 12:53:00
8:53 AM,55.9,53.1,90,29.94,10.0,East,4.6,-,0.01,Rain,Light Rain,80,2014-01-02 13:53:00
9:49 AM,57.2,53.6,88,29.95,10.0,Calm,Calm,-,0.01,,Overcast,0,2014-01-02 14:49:00
9:53 AM,57.0,54.0,89,29.95,10.0,ESE,3.5,-,0.01,Rain,Light Rain,110,2014-01-02 14:53:00
10:53 AM,57.0,54.0,89,29.95,10.0,Calm,Calm,-,0.00,Rain,Light Rain,0,2014-01-02 15:53:00
11:53 AM,57.9,55.9,93,29.92,10.0,Calm,Calm,-,0.00,,Overcast,0,2014-01-02 16:53:00
12:53 PM,60.1,57.0,90,29.88,10.0,South,5.8,-,0.00,,Overcast,190,2014-01-02 17:53:00
1:53 PM,61.0,57.9,90,29.84,6.0,South,4.6,-,0.00,Rain,Light Rain,190,2014-01-02 18:53:00
2:50 PM,62.6,59.0,88,29.82,10.0,SSW,8.1,-,0.01,Rain,Light Rain,200,2014-01-02 19:50:00
2:53 PM,63.0,59.0,87,29.81,10.0,South,8.1,-,0.01,Rain,Light Rain,180,2014-01-02 19:53:00
3:31 PM,62.6,57.2,82,29.84,7.0,NW,12.7,25.3,0.01,Rain,Light Rain,310,2014-01-02 20:31:00
3:53 PM,61.0,57.0,87,29.84,10.0,WNW,11.5,-,0.01,,Overcast,300,2014-01-02 20:53:00
4:14 PM,60.8,57.2,88,29.85,3.0,NW,9.2,-,0.01,Rain,Light Rain,310,2014-01-02 21:14:00
4:39 PM,60.8,55.4,82,29.88,2.5,NW,12.7,-,0.03,Rain,Heavy Rain,310,2014-01-02 21:39:00
4:50 PM,59.0,55.4,88,29.88,5.0,NW,15.0,25.3,0.04,Rain,Light Rain,310,2014-01-02 21:50:00
4:53 PM,59.0,55.0,87,29.88,9.0,NW,15.0,25.3,0.04,Rain,Light Rain,320,2014-01-02 21:53:00
5:49 PM,59.0,53.6,82,29.90,10.0,NW,12.7,-,0.01,,Overcast,310,2014-01-02 22:49:00
5:53 PM,57.9,53.1,84,29.90,10.0,NW,9.2,-,0.01,,Mostly Cloudy,310,2014-01-02 22:53:00
6:53 PM,57.0,53.1,87,29.93,10.0,NW,9.2,-,N/A,,Mostly Cloudy,310,2014-01-02 23:53:00
7:53 PM,55.0,46.0,72,29.97,10.0,NW,16.1,25.3,N/A,,Partly Cloudy,320,2014-01-03 00:53:00
8:53 PM,52.0,39.9,63,30.02,10.0,NNW,20.7,34.5,N/A,,Partly Cloudy,340,2014-01-03 01:53:00
9:53 PM,48.9,34.0,56,30.06,10.0,NNW,13.8,31.1,N/A,,Partly Cloudy,330,2014-01-03 02:53:00
10:53 PM,46.9,34.0,61,30.08,10.0,NNW,11.5,-,N/A,,Clear,330,2014-01-03 03:53:00
11:53 PM,45.0,28.9,53,30.11,10.0,NNW,17.3,23.0,N/A,,Clear,330,2014-01-03 04:53:00